TimeMDT,TemperatureF,Dew PointF,Humidity,Sea Level PressureIn,VisibilityMPH,Wind Direction,Wind SpeedMPH,Gust SpeedMPH,PrecipitationIn,Events,Conditions,WindDirDegrees,DateUTC
12:56 AM,71.6,48.2,43,29.95,10.0,ESE,15.0,-,N/A,,Mostly Cloudy,110,2013-09-17 06:56:00
1:56 AM,71.6,48.2,43,29.95,10.0,ESE,10.4,-,N/A,Thunderstorm,Overcast,120,2013-09-17 07:56:00
2:56 AM,69.8,48.2,46,29.95,10.0,ESE,9.2,-,N/A,,Partly Cloudy,120,2013-09-17 08:56:00
3:56 AM,68.0,50.0,52,29.94,10.0,SE,9.2,-,N/A,,Partly Cloudy,130,2013-09-17 09:56:00
4:56 AM,68.0,48.2,49,29.92,10.0,ESE,12.7,-,N/A,,Clear,120,2013-09-17 10:56:00
5:56 AM,69.8,48.2,46,29.90,10.0,South,13.8,-,N/A,,Mostly Cloudy,180,2013-09-17 11:56:00
6:56 AM,66.2,50.0,56,29.90,10.0,South,13.8,-,N/A,,Clear,170,2013-09-17 12:56:00
7:58 AM,66.9,49.8,54,29.61,10.0,South,12.7,-,N/A,,Scattered Clouds,170,2013-09-17 13:58:00
8:58 AM,72.5,49.6,44,29.58,10.0,SSE,12.7,-,N/A,,Mostly Cloudy,160,2013-09-17 14:58:00
9:58 AM,74.1,50.2,43,29.58,10.0,SSE,18.4,25.3,N/A,,Mostly Cloudy,160,2013-09-17 15:58:00
10:58 AM,76.6,49.6,39,29.56,10.0,SSE,20.7,27.6,N/A,,Mostly Cloudy,160,2013-09-17 16:58:00
11:24 AM,77.0,51.8,41,29.86,10.0,South,19.6,-,N/A,Rain,Light Rain,170,2013-09-17 17:24:00
11:39 AM,77.0,51.8,41,29.86,10.0,South,23.0,28.8,N/A,,Mostly Cloudy,170,2013-09-17 17:39:00
11:58 AM,77.9,51.1,39,29.52,10.0,South,18.4,26.5,0.00,,Mostly Cloudy,170,2013-09-17 17:58:00
12:58 PM,80.2,49.1,34,29.49,10.0,South,19.6,-,N/A,,Scattered Clouds,180,2013-09-17 18:58:00
1:58 PM,83.5,49.6,31,29.44,10.0,South,17.3,28.8,N/A,,Scattered Clouds,180,2013-09-17 19:58:00
2:58 PM,83.5,48.2,29,29.40,10.0,South,19.6,-,N/A,,Scattered Clouds,180,2013-09-17 20:58:00
3:58 PM,85.5,44.1,23,29.36,10.0,SSW,23.0,28.8,N/A,,Scattered Clouds,200,2013-09-17 21:58:00
4:58 PM,86.0,37.8,18,29.34,10.0,SSW,23.0,33.4,N/A,,Scattered Clouds,210,2013-09-17 22:58:00
5:58 PM,84.6,38.3,19,29.32,6.0,SW,24.2,33.4,N/A,,Scattered Clouds,220,2013-09-17 23:58:00
6:58 PM,80.4,39.9,24,29.36,10.0,South,17.3,21.9,N/A,,Scattered Clouds,190,2013-09-18 00:58:00
7:58 PM,78.3,40.1,25,29.49,10.0,South,18.4,25.3,N/A,,Mostly Cloudy,180,2013-09-18 01:58:00
8:58 PM,78.3,39.4,25,29.48,10.0,South,21.9,35.7,N/A,Thunderstorm,Overcast,180,2013-09-18 02:58:00
9:58 PM,77.5,38.3,24,29.47,10.0,South,26.5,36.8,N/A,Thunderstorm,Mostly Cloudy,190,2013-09-18 03:58:00
9:59 PM,77.0,37.4,24,29.34,10.0,South,23.0,36.8,N/A,Thunderstorm,Thunderstorm,190,2013-09-18 03:59:00
10:18 PM,77.0,39.2,26,29.32,10.0,South,20.7,27.6,N/A,Thunderstorm,Mostly Cloudy,180,2013-09-18 04:18:00
10:58 PM,76.5,40.5,27,29.49,10.0,South,23.0,31.1,N/A,,Mostly Cloudy,180,2013-09-18 04:58:00
11:04 PM,75.2,41.0,29,29.71,10.0,West,13.8,-,N/A,,Mostly Cloudy,270,2013-09-18 05:04:00
11:12 PM,73.4,41.0,31,29.35,10.0,SW,20.7,34.5,N/A,,Mostly Cloudy,220,2013-09-18 05:12:00
11:39 PM,75.2,39.2,27,29.71,10.0,SW,11.5,-,N/A,,Mostly Cloudy,230,2013-09-18 05:39:00
11:58 PM,71.2,45.9,40,29.53,10.0,WNW,8.1,-,N/A,,Mostly Cloudy,300,2013-09-18 05:58:00